Location: Oberwangen
(47.4286°N, 8.9679°E)
Time: 07:53:34
(UTC+00:00)

Cosmos 1447 Rocket - Pass Details

Date: 29 October 2021
Orbit: 953 x 996 km, 82.9° (Epoch: 27 November)

Event Time Altitude Azimuth Distance (km) Brightness Sun altitude
Rises 04:50:07 0° 128° (SE) 3,659 8.6 -12.9°
Reaches altitude 10° 04:54:08 10° 102° (ESE) 2,709 8.3 -12.2°
Maximum altitude 04:56:48 13° 76° (ENE) 2,483 7.8 -11.8°
Drops below altitude 10° 04:59:28 10° 51° (NE) 2,705 7.5 -11.3°
Sets 05:03:27 0° 25° (NNE) 3,651 7.7 -10.7°
